Regional Weather Roundup
Issued by NWS

Home | Current Version | Previous Version | Text Only | Print | Product List | Glossary Off
Versions: 1 2 3 4 5 6 7 8 9 10 11 12 13 14 15 16 17 18 19 20 21 22 23 24 25 26 27 28 29 30 31 32 33 34 35 36 37 38 39 40 41 42 43 44 45 46 47 48 49 50

000
ASUS43 KDMX 282307
RWRIA

WEATHER ROUNDUP FOR IOWA
NATIONAL WEATHER SERVICE DES MOINES IA
500 PM CST SAT FEB 28 2015

NOTE: "FAIR" INDICATES FEW OR NO CLOUDS BELOW 12,000 FEET WITH NO
SIGNIFICANT WEATHER AND/OR OBSTRUCTIONS TO VISIBILITY.

* - THESE STATIONS ARE NOT NWS STATIONS...THUS NOT UNDER NWS
QUALITY CONTROL.  THEY ALSO DO NOT REPORT WEATHER SUCH
AS PRECIPITATION OR FOG.

IAZ001>003-012>014-020>022-031>034-043>046-010000-
   NORTHWEST IOWA

CITY           SKY/WX    TMP DP  RH WIND       PRES   REMARKS
CARROLL *      PTSUNNY   21  16  79 S14       30.35S WCI   8
CHEROKEE *     CLOUDY    21  14  73 S14       30.31S WCI   8
DENISON *      PTSUNNY   21  16  79 S13       30.31F WCI   9
LE MARS *      CLOUDY    25  16  68 S14G21    30.29S WCI  13
ORANGE CITY *  CLOUDY    25  16  68 S16       30.26F WCI  12
SHELDON *      CLOUDY    21  14  73 S16G24    30.26S WCI   7
SIOUX CITY     CLOUDY    27  15  61 S15       30.30F WCI  15
SPENCER        CLOUDY    21  12  68 S15       30.30F WCI   8
STORM LAKE *   MIX PCPN  21  12  68 S15       30.31S WCI   8
$$

IAZ055>058-069>071-079>083-090>094-010000-
   SOUTHWEST IOWA

CITY           SKY/WX    TMP DP  RH WIND       PRES   REMARKS
ATLANTIC *     PTSUNNY   23  18  80 S7        30.35F WCI  15
AUDUBON *      LGT SNOW  21  18  86 S9        30.35F WCI  11
CLARINDA *     CLOUDY    25  19  80 S9        30.39F FOG     WCI  15
COUNCIL BLFS * MOSUNNY   21  19  93 S8        30.33F FOG     WCI  12
CRESTON *      CLOUDY    21  19  93 S7        30.36F FOG     WCI  13
HARLAN  *      PTSUNNY   21  19  93 S13       30.37F WCI   9
LAMONI         LGT SNOW  22  18  85 SE9       30.38F FOG     WCI  12
RED OAK *      MIX PCPN  23  19  86 S9        30.36F WCI  13
SHENANDOAH *   CLOUDY    23  19  86 S9        30.38F WCI  13
$$

IAZ047>049-059>061-072>074-084-010000-
   CENTRAL IOWA

CITY           SKY/WX    TMP DP  RH WIND       PRES   REMARKS
AMES           CLOUDY    19  12  74 SE9       30.40F WCI   8
ANKENY *       LGT SNOW  19  16  86 E6        30.41F WCI  11
CHARITON *     PTSUNNY   23  19  86 SE7       30.40F FOG     WCI  15
DES MOINES     LGT SNOW  22  17  81 SE6       30.40F WCI  14
GRINNELL*      LGT SNOW  19  14  79 SE10      30.42F WCI   8
KNOXVILLE *    LGT SNOW  21  18  86 SE7       30.41S WCI  13
MARSHALLTOWN   CLOUDY    16   9  74 SE10      30.41F WCI   4
PELLA *        LGT SNOW  21  19  93 SE8       30.44F WCI  12
PERRY *        LGT SNOW  23  18  80 S10       30.38F WCI  12
$$

IAZ004>006-015-016-023>025-035-036-010000-
   NORTH CENTRAL IOWA

CITY           SKY/WX    TMP DP  RH WIND       PRES   REMARKS
ALGONA *       CLOUDY    19  10  68 S15       30.35S WCI   5
CLARION *      CLOUDY    16  10  79 SE17      30.37F WCI   0
ESTHERVILLE    CLOUDY    20  11  68 S18       30.31F WCI   5
FORT DODGE *   CLOUDY    21  10  63 S10       30.37F WCI  10
MASON CITY     CLOUDY    12   4  70 S14       30.39F WCI  -3
FOREST CITY *  CLOUDY    14   5  67 SE13      30.37F WCI   0
IOWA FALLS *     N/A     18   9  68 SE12      30.40F WCI   5
$$

IAZ007>011-017>019-026>030-037>042-050>054-066-010000-
   NORTHEAST IOWA

CITY           SKY/WX    TMP DP  RH WIND       PRES   REMARKS
CEDAR RAPIDS   CLOUDY    17   5  59 SE9       30.46S WCI   6
CHARLES CITY * MOCLDY    14   3  62 SE12      30.42F WCI   0
CLINTON *      MOCLDY    16   7  67 SE9       30.53S WCI   4
DECORAH *      CLOUDY    14   0  52 S9        30.42F WCI   2
DUBUQUE        MOCLDY    13   3  64 S7        30.47F WCI   3
MONTICELLO *   CLOUDY    14   3  62 SE9       30.48F WCI   2
OELWEIN *      PTCLDY    12   3  67 SE13      30.45S WCI  -3
WATERLOO       PTCLDY    15   5  64 SE7       30.45S WCI   5
$$

IAZ064-065-067-068-078-010000-
   EAST CENTRAL IOWA

CITY           SKY/WX    TMP DP  RH WIND       PRES   REMARKS
DAVENPORT      LGT SNOW  16   6  65 SE9       30.50F WCI   4
IOWA CITY      LGT SNOW  16  10  77 SE9       30.50F VSB 1   WCI   4
MT. PLEASANT * LGT SNOW  19  14  79 E8        30.48F WCI   9
MUSCATINE *    LGT SNOW  19  10  68 SE7       30.52S WCI  10
QUAD CITIES    CLOUDY    18   6  59 E9        30.51F WCI   7
$$

IAZ062-063-075>077-085>089-095>099-010000-
   SOUTHEAST IOWA

CITY           SKY/WX    TMP DP  RH WIND       PRES   REMARKS
BURLINGTON     LGT SNOW  19  13  77 E6        30.49S WCI  11
FAIRFIELD *    LGT SNOW  18  14  86 SE10      30.46F WCI   6
FORT MADISON * LGT SNOW  18  16  93 SE5       30.48F WCI  11
KEOKUK *       LGT SNOW  19  18  93 E6        30.48F WCI  11
OSKALOOSA *    LGT SNOW  19  16  86 SE12      30.44F WCI   7
CENTERVILLE *  FLURRIES  21  18  86 SE10      30.42F WCI  10
OTTUMWA        LGT SNOW  19  14  81 SE12      30.43F WCI   7
WASHINGTON *   CLEAR     18  16  93 SE10      30.48F FOG     WCI   6
$$

ABBREVIATIONS USED IN REMARKS
   TC - TEMPERATURES IN CELSIUS
  WCI - WIND CHILL INDEX
   HX - HEAT INDEX
  VSB - VISIBILITY
$$



USA.gov is the U.S. government's official web portal to all federal, state and local government web resources and services.